Location: Terra Rouge Observatory
(46.0000°N, 62.7500°W)
Time: 17:42:46
(UTC-04:00)

Daily predictions for brighter satellites

Satellite Brightness Start Highest point End
(mag) Time Altitude Azimuth Time Altitude Azimuth Time Altitude Azimuth
ATLAS 3B R/B 3.2 16:52:46 10° NNW 16:58:55 35° NE 17:04:50 10° E
ISS -3.1 16:57:16 10° NW 17:00:22 36° NNE 17:03:27 10° E
Abrixas rocket 3.8 17:03:45 10° SSW 17:06:24 23° SE 17:09:03 10° E
Cosmos 1680 Rocket 4.3 17:01:21 10° NNW 17:06:33 60° WSW 17:11:44 10° S
NOSS 3-1 (A) 3.8 17:00:53 10° SW 17:06:40 63° NW 17:13:18 10° NE
Cosmos 2369 Rocket 3.5 17:04:50 10° WSW 17:09:58 36° NW 17:15:08 10° NNE
USA 215 3.8 17:04:23 10° SE 17:10:52 64° SW 17:17:22 10° NW
Cosmos 1607 4.0 17:04:45 10° NW 17:11:18 82° NE 17:17:45 10° SE
CSL-04 Rocket 3.7 17:07:39 10° SSE 17:13:01 67° ENE 17:18:28 10° N
Atlas Centaur 2 4.3 17:11:42 10° SSW 17:13:20 11° S 17:14:52 10° SSE
Cosmos 1455 Rocket 4.0 17:10:37 10° NNE 17:14:21 26° ENE 17:18:01 10° SE
Meteor 1-28 Rocket 4.1 17:11:39 10° NNE 17:14:58 29° E 17:18:17 10° SSE
Cosmos 1743 3.6 17:13:40 10° NNE 17:17:04 28° ENE 17:20:27 10° SE
Cosmos 1544 Rocket 4.4 17:14:15 10° NNE 17:18:07 29° ENE 17:21:54 10° SE
Cosmos 2279 Rocket 4.3 17:13:26 10° SSE 17:19:21 46° E 17:25:17 10° NNE
YAOGAN 1 3.1 17:20:19 10° SE 17:24:15 35° ENE 17:28:12 10° N
Okean 1 3.3 17:24:03 10° S 17:27:57 60° E 17:31:53 10° NNE
IDEFIX/ARIANE 42P 4.5 17:24:54 10° SSW 17:29:34 33° W 17:34:15 10° NNW
METEOR-M 4.5 17:24:57 10° SE 17:29:56 42° ENE 17:34:56 10° N
NOSS 2-3 (C) 3.9 17:25:25 10° SSW 17:30:03 70° SE 17:35:09 12° NE
Cosmos 1818 3.6 17:25:42 10° SW 17:31:07 88° WNW 17:36:32 10° NE
Cosmos 2227 Rocket 2.7 17:27:42 10° NNW 17:32:57 36° NE 17:38:09 10° ESE
Cosmos 2219 3.1 17:28:31 10° NNW 17:34:11 84° ENE 17:39:48 10° SSE
ATLAS CENTAUR R/B 4.4 17:31:15 10° WNW 17:34:12 20° WSW 17:37:16 10° SSW
Cosmos 1898 Rocket 3.5 17:29:35 10° SSW 17:34:48 86° ESE 17:40:05 10° NNE
COSMO-SKYMED 1 3.6 17:31:45 12° NE 17:34:53 25° E 17:38:29 10° SSE
Ariane Rocket 3.0 17:33:03 10° SSE 17:38:07 87° WSW 17:43:12 10° NNW
Cosmos 1975 2.7 17:34:22 10° N 17:38:25 80° E 17:42:27 10° S
USA 116 3.8 17:36:13 14° NNE 17:38:44 36° E 17:41:40 10° SSE
Cosmos 389 Rocket 2.4 17:36:19 10° N 17:39:48 58° ENE 17:43:13 10° SSE
Cosmos 1656 Rocket 4.0 17:35:01 10° SW 17:40:31 65° WNW 17:45:59 10° NNE
CENTAUR R/B 4.0 17:36:14 10° NNW 17:42:15 25° NNE 17:46:33 17° ENE
Cosmos 1271 Rocket 2.8 17:40:07 10° N 17:43:50 51° ENE 17:47:32 10° SSE
Cosmos 1500 4.4 17:41:24 10° NNW 17:45:03 44° W 17:48:37 10° SSW
PKM 4.3 17:41:05 10° WSW 17:47:54 69° NW 17:49:53 22° NE
Cosmos 2298 Rocket 4.0 17:42:37 10° SSW 17:47:54 77° ESE 17:53:15 10° NNE
CZ-4 R/B 1.2 17:44:17 10° SSE 17:48:08 86° ENE 17:52:05 10° NNW
Cosmos 1975 Rocket 3.1 17:43:40 10° S 17:48:09 87° WNW 17:52:39 10° N
Cosmos 1484 Rocket 3.5 17:45:59 10° S 17:49:55 59° W 17:53:56 10° NNW
Cosmos 1937 Rocket 3.4 17:45:58 10° SSW 17:51:10 86° ESE 17:56:21 10° NNE
Cosmos 1634 Rocket 4.5 17:46:57 10° SSW 17:53:04 63° WNW 17:59:18 10° N
SJ 16-02 2.6 17:51:59 10° SSE 17:55:07 21° E 17:55:07 21° E
CORIOLIS 4.4 17:50:36 10° S 17:56:01 76° WSW 18:01:28 10° NNW
USA 238 DEB 3.8 17:49:28 10° NW 17:56:33 67° NE 18:03:42 10° SE
USA 238 3.8 17:49:34 10° NW 17:56:39 66° NE 18:03:48 10° SE
Cosmos 1655 Rocket 4.1 17:51:30 10° N 17:57:54 85° W 18:04:18 10° S
Meteor 1-13 Rocket 4.3 17:53:56 10° S 17:59:20 55° E 18:04:52 10° NNE
Cosmos 2297 Rocket 2.4 17:54:58 10° NNW 18:00:29 48° ENE 18:05:56 10° SE
ERS-2 2.1 18:02:08 10° SSE 18:05:43 57° ENE 18:09:20 10° N
Cosmos 1943 Rocket 4.2 18:04:57 10° W 18:09:18 22° NW 18:13:41 10° N
CZ-4 R/B 4.4 18:05:45 10° SSE 18:09:54 84° W 18:14:03 10° NNW
Meteor 2-4 Rocket 3.7 18:05:25 10° S 18:10:42 52° E 18:14:56 15° NNE
CZ-2C R/B 3.8 18:06:35 10° NNE 18:11:15 85° WNW 18:15:58 10° SSW
SMAP 4.5 18:10:18 10° SSW 18:14:40 40° W 18:19:04 10° NNW
NOSS 2-3 (D) 4.4 18:10:07 10° SW 18:14:47 60° NW 18:18:27 21° NNE
Cosmos 1536 Rocket 3.5 18:11:59 10° S 18:16:16 58° E 18:18:21 28° NNE
Cosmos 1666 3.1 18:13:58 10° NNW 18:17:41 63° W 18:21:23 10° S
Cosmos 2266 Rocket 3.8 18:11:47 10° N 18:17:50 69° E 18:23:57 10° SSE
OPS 6432 4.5 18:14:29 10° SW 18:17:59 65° NW 18:18:40 47° N
Cosmos 372 Rocket 4.3 18:17:25 10° S 18:22:18 42° ESE 18:23:10 39° ENE
SKYMED 2 3.4 18:20:22 22° NNE 18:23:10 79° ESE 18:27:30 10° S
ALOS 2.1 18:20:15 10° SSE 18:24:54 78° ENE 18:29:36 10° N
Gblst 52 Del rocket 4.4 18:21:24 10° WNW 18:26:57 58° NNE 18:29:00 39° ENE
Meteor 1-19 Rocket 4.3 18:22:03 10° SSW 18:27:43 81° W 18:33:32 10° N
NOSS 3-2 (A) 3.9 18:20:43 10° NW 18:28:04 64° NE 18:34:03 19° SE
Cosmos 2369 3.9 18:24:55 10° S 18:30:20 50° ESE 18:31:41 41° ENE
Cosmos 1656 3.9 18:25:10 10° S 18:30:24 43° ESE 18:30:59 41° E
Cosmos 468 4.5 18:26:08 10° NNW 18:31:31 87° WSW 18:36:49 10° SSE
Cosmos 2278 3.9 18:27:09 10° S 18:32:36 49° ESE 18:33:41 43° ENE
NOSS 3-2 (C) 4.0 18:25:40 10° NW 18:32:54 56° NE 18:36:51 30° ESE
ISS -3.3 18:33:44 10° WNW 18:36:46 58° WSW 18:36:46 58° WSW
DMSP B5D1-3 4.4 18:37:48 38° NNE 18:39:44 68° ESE 18:44:49 10° S
ATLAS 2AS CENTAUR R/B 3.1 18:33:58 10° SW 18:41:49 81° NW 18:46:52 27° NE
MINOTAUR IV R/B 4.4 18:38:06 10° NNW 18:42:31 71° NE 18:42:31 71° NE
SPOT 3 Rocket 3.7 18:37:31 10° S 18:42:42 74° WSW 18:47:53 10° NNW
Abrixas rocket 3.1 18:39:27 10° WSW 18:41:53 48° WSW 18:41:53 48° WSW
Cosmos 2263 Rocket 4.4 18:40:02 10° N 18:40:15 11° N 18:40:15 11° N
BREEZE-M DEB (TANK) 3.2 18:40:14 10° WNW 18:42:55 55° N 18:42:56 55° N
EO 1 Del DPAF 3.4 18:44:05 60° NNW 18:44:36 70° WNW 18:48:23 10° SSW
Cosmos 1244 Rocket 4.5 18:40:55 10° N 18:46:56 53° ENE 18:52:56 10° SSE
ATLAS 3B R/B 2.9 18:43:27 10° NW 18:50:04 67° WSW 18:56:30 10° SSE
FengYun 1-2 T 4.1 18:47:53 10° SSE 18:53:27 72° ENE 18:59:06 10° N
Cosmos 724 4.2 18:49:45 10° NW 18:55:35 83° WSW 18:58:18 33° SSE
FENGYUN 3A 4.2 18:53:27 10° S 18:58:44 58° W 19:04:03 10° NNW
Cosmos 1697 Rocket 3.3 18:55:17 10° S 18:59:15 41° SSE 18:59:15 41° SSE
Cosmos 2082 4.0 18:56:35 10° NNW 19:02:09 65° WSW 19:07:42 10° SSE
NOSS 3-4 (A) 4.1 18:57:10 10° S 19:01:36 37° SSE 19:01:36 37° SSE
NOSS 3-4 (C) 4.2 18:57:16 10° S 19:01:38 36° SSE 19:01:38 36° SSE
COSMO-SKYMED 1 4.1 19:08:57 21° NNW 19:11:05 34° WNW 19:15:00 10° SW
Meteor 1-23 Rocket 4.4 19:05:32 10° SSW 19:11:18 74° WNW 19:13:33 38° N
Cosmos 1269 Rocket 4.4 19:10:09 10° NNW 19:15:24 61° WSW 19:17:47 32° S
Cosmos 2227 Rocket 3.4 19:11:47 10° NW 19:17:02 40° WSW 19:22:14 10° S
Cosmos 1125 Rocket 4.1 19:23:16 10° SW 19:28:26 53° WNW 19:28:37 53° NW
SJ 16-02 3.0 19:29:26 10° SW 19:32:11 31° WSW 19:32:11 31° WSW
CENTAUR R/B 3.2 19:26:57 10° NW 19:33:46 57° NNE 19:33:46 57° NNE
Cosmos 1980 Rocket 4.3 19:34:12 10° S 19:35:11 15° S 19:35:11 15° S
Cosmos 2297 Rocket 4.0 19:39:30 10° NW 19:44:16 29° WSW 19:49:00 10° SSW
ATLAS 2AS CENTAUR R/B 4.3 20:27:06 10° W 20:34:06 32° NNW 20:34:20 32° NNW
